contact:dominique.lefevre@mio.osupytheas.fr, maurice.libes@osupytheas.fr, didier.mallarino@osupytheas.fr
Project:EMSO http://www.emso-fr.org/EMSO-France
Depth: 2436.0 m
Title:EMSO Ligure Ouest : Data MII capteur MICROCAT
DateTime_Computer,Latitude,Longitude,Temperature,Conductivity,Pressure,DateTime_Instrument
DateTime_Computer,Latitude,Longitude,degC,S m-1,dbar,DateTime_Instrument
2023-09-22T00:00:25Z,42.805,6.029,13.3067,4.60181,2470.777,2023-9-22T02:02:47Z
2023-09-22T00:03:28Z,42.805,6.029,13.3050,4.60175,2470.763,2023-9-22T02:05:50Z
2023-09-22T00:06:31Z,42.805,6.029,13.3066,4.60192,2470.74,2023-9-22T02:08:53Z
2023-09-22T00:09:34Z,42.805,6.029,13.3051,4.60178,2470.8,2023-9-22T02:11:56Z
2023-09-22T00:12:37Z,42.805,6.029,13.3046,4.60178,2470.74,2023-9-22T02:14:59Z
2023-09-22T00:15:40Z,42.805,6.029,13.3053,4.60180,2470.74,2023-9-22T02:18:03Z
2023-09-22T00:18:43Z,42.805,6.029,13.3043,4.60185,2470.754,2023-9-22T02:21:06Z
2023-09-22T00:21:46Z,42.805,6.029,13.3061,4.60167,2470.707,2023-9-22T02:24:09Z
2023-09-22T00:24:49Z,42.805,6.029,13.3052,4.60167,2470.777,2023-9-22T02:27:12Z
2023-09-22T00:27:52Z,42.805,6.029,13.3046,4.60175,2470.754,2023-9-22T02:30:15Z
2023-09-22T00:30:55Z,42.805,6.029,13.3052,4.60154,2470.73,2023-9-22T02:33:18Z
2023-09-22T00:33:58Z,42.805,6.029,13.3058,4.60178,2470.717,2023-9-22T02:36:21Z
2023-09-22T00:37:02Z,42.805,6.029,13.3047,4.60156,2470.717,2023-9-22T02:39:24Z
2023-09-22T00:40:05Z,42.805,6.029,13.3055,4.60160,2470.717,2023-9-22T02:42:27Z
2023-09-22T00:43:08Z,42.805,6.029,13.3052,4.60185,2470.73,2023-9-22T02:45:30Z
2023-09-22T00:46:11Z,42.805,6.029,13.3058,4.60172,2470.717,2023-9-22T02:48:33Z
2023-09-22T00:49:14Z,42.805,6.029,13.3051,4.60176,2470.74,2023-9-22T02:51:36Z
2023-09-22T00:52:17Z,42.805,6.029,13.3046,4.60180,2470.754,2023-9-22T02:54:40Z
2023-09-22T00:55:20Z,42.805,6.029,13.3049,4.60174,2470.754,2023-9-22T02:57:43Z
2023-09-22T00:58:23Z,42.805,6.029,13.3056,4.60152,2470.717,2023-9-22T03:00:46Z
2023-09-22T01:01:26Z,42.805,6.029,13.3055,4.60191,2470.717,2023-9-22T03:03:49Z
2023-09-22T01:04:29Z,42.805,6.029,13.3054,4.60158,2470.754,2023-9-22T03:06:52Z
2023-09-22T01:07:32Z,42.805,6.029,13.3045,4.60173,2470.717,2023-9-22T03:09:55Z
2023-09-22T01:10:35Z,42.805,6.029,13.3045,4.60155,2470.754,2023-9-22T03:12:58Z
2023-09-22T01:13:39Z,42.805,6.029,13.3040,4.60162,2470.763,2023-9-22T03:16:01Z
2023-09-22T01:16:42Z,42.805,6.029,13.3051,4.60185,2470.787,2023-9-22T03:19:04Z
2023-09-22T01:19:45Z,42.805,6.029,13.3048,4.60164,2470.717,2023-9-22T03:22:07Z
2023-09-22T01:22:48Z,42.805,6.029,13.3048,4.60169,2470.73,2023-9-22T03:25:10Z
2023-09-22T01:25:51Z,42.805,6.029,13.3052,4.60162,2470.74,2023-9-22T03:28:13Z
2023-09-22T01:28:54Z,42.805,6.029,13.3043,4.60156,2470.73,2023-9-22T03:31:17Z
2023-09-22T01:31:57Z,42.805,6.029,13.3056,4.60149,2470.717,2023-9-22T03:34:20Z
2023-09-22T01:35:00Z,42.805,6.029,13.3046,4.60166,2470.717,2023-9-22T03:37:23Z
2023-09-22T01:38:03Z,42.805,6.029,13.3043,4.60162,2470.73,2023-9-22T03:40:26Z
2023-09-22T01:41:06Z,42.805,6.029,13.3040,4.60170,2470.754,2023-9-22T03:43:29Z
2023-09-22T01:44:09Z,42.805,6.029,13.3039,4.60161,2470.693,2023-9-22T03:46:32Z
2023-09-22T01:47:12Z,42.805,6.029,13.3054,4.60168,2470.717,2023-9-22T03:49:35Z
2023-09-22T01:50:16Z,42.805,6.029,13.3041,4.60163,2470.73,2023-9-22T03:52:38Z
2023-09-22T01:53:19Z,42.805,6.029,13.3044,4.60138,2470.707,2023-9-22T03:55:41Z
2023-09-22T01:56:22Z,42.805,6.029,13.3039,4.60151,2470.717,2023-9-22T03:58:44Z
2023-09-22T01:59:25Z,42.805,6.029,13.3046,4.60155,2470.754,2023-9-22T04:01:47Z
2023-09-22T02:02:28Z,42.805,6.029,13.3039,4.60153,2470.693,2023-9-22T04:04:50Z
2023-09-22T02:05:31Z,42.805,6.029,13.3048,4.60152,2470.754,2023-9-22T04:07:54Z
2023-09-22T02:08:34Z,42.805,6.029,13.3046,4.60160,2470.707,2023-9-22T04:10:57Z
2023-09-22T02:11:37Z,42.805,6.029,13.3047,4.60142,2470.67,2023-9-22T04:14:00Z
2023-09-22T02:14:40Z,42.805,6.029,13.3048,4.60155,2470.693,2023-9-22T04:17:03Z
2023-09-22T02:17:43Z,42.805,6.029,13.3035,4.60144,2470.693,2023-9-22T04:20:06Z
2023-09-22T02:20:46Z,42.805,6.029,13.3056,4.60150,2470.73,2023-9-22T04:23:09Z
2023-09-22T02:23:49Z,42.805,6.029,13.3047,4.60135,2470.693,2023-9-22T04:26:12Z
2023-09-22T02:26:53Z,42.805,6.029,13.3048,4.60157,2470.717,2023-9-22T04:29:15Z
2023-09-22T02:29:56Z,42.805,6.029,13.3058,4.60150,2470.73,2023-9-22T04:32:18Z
2023-09-22T02:32:59Z,42.805,6.029,13.3039,4.60179,2470.693,2023-9-22T04:35:21Z
2023-09-22T02:36:02Z,42.805,6.029,13.3045,4.60144,2470.73,2023-9-22T04:38:24Z
2023-09-22T02:39:05Z,42.805,6.029,13.3047,4.60152,2470.693,2023-9-22T04:41:27Z
2023-09-22T02:42:08Z,42.805,6.029,13.3044,4.60157,2470.693,2023-9-22T04:44:31Z
2023-09-22T02:45:11Z,42.805,6.029,13.3043,4.60158,2470.717,2023-9-22T04:47:34Z
2023-09-22T02:48:14Z,42.805,6.029,13.3050,4.60142,2470.73,2023-9-22T04:50:37Z
2023-09-22T02:51:17Z,42.805,6.029,13.3051,4.60157,2470.707,2023-9-22T04:53:40Z
2023-09-22T02:54:20Z,42.805,6.029,13.3047,4.60162,2470.693,2023-9-22T04:56:43Z
2023-09-22T02:57:23Z,42.805,6.029,13.3052,4.60151,2470.693,2023-9-22T04:59:46Z
2023-09-22T03:00:26Z,42.805,6.029,13.3041,4.60150,2470.693,2023-9-22T05:02:49Z
2023-09-22T03:03:30Z,42.805,6.029,13.3043,4.60145,2470.693,2023-9-22T05:05:52Z
2023-09-22T03:06:33Z,42.805,6.029,13.3042,4.60171,2470.717,2023-9-22T05:08:55Z
2023-09-22T03:09:36Z,42.805,6.029,13.3039,4.60149,2470.717,2023-9-22T05:11:58Z
2023-09-22T03:12:39Z,42.805,6.029,13.3041,4.60171,2470.707,2023-9-22T05:15:01Z
2023-09-22T03:15:42Z,42.805,6.029,13.3047,4.60144,2470.693,2023-9-22T05:18:04Z
2023-09-22T03:18:45Z,42.805,6.029,13.3039,4.60144,2470.707,2023-9-22T05:21:08Z
2023-09-22T03:21:48Z,42.805,6.029,13.3041,4.60154,2470.717,2023-9-22T05:24:11Z
2023-09-22T03:24:51Z,42.805,6.029,13.3037,4.60167,2470.73,2023-9-22T05:27:14Z
2023-09-22T03:27:54Z,42.805,6.029,13.3036,4.60140,2470.707,2023-9-22T05:30:17Z
2023-09-22T03:30:57Z,42.805,6.029,13.3042,4.60137,2470.707,2023-9-22T05:33:20Z
2023-09-22T03:34:00Z,42.805,6.029,13.3037,4.60138,2470.717,2023-9-22T05:36:23Z
2023-09-22T03:37:03Z,42.805,6.029,13.3043,4.60142,2470.693,2023-9-22T05:39:26Z
2023-09-22T03:40:07Z,42.805,6.029,13.3043,4.60137,2470.693,2023-9-22T05:42:29Z
2023-09-22T03:43:10Z,42.805,6.029,13.3046,4.60150,2470.707,2023-9-22T05:45:32Z
2023-09-22T03:46:13Z,42.805,6.029,13.3049,4.60129,2470.707,2023-9-22T05:48:35Z
2023-09-22T03:49:16Z,42.805,6.029,13.3041,4.60149,2470.754,2023-9-22T05:51:38Z
2023-09-22T03:52:19Z,42.805,6.029,13.3042,4.60137,2470.67,2023-9-22T05:54:41Z
2023-09-22T03:55:22Z,42.805,6.029,13.3047,4.60144,2470.67,2023-9-22T05:57:45Z
2023-09-22T03:58:25Z,42.805,6.029,13.3048,4.60143,2470.707,2023-9-22T06:00:48Z
2023-09-22T04:01:28Z,42.805,6.029,13.3036,4.60128,2470.693,2023-9-22T06:03:51Z
2023-09-22T04:04:31Z,42.805,6.029,13.3047,4.60141,2470.684,2023-9-22T06:06:54Z
2023-09-22T04:07:34Z,42.805,6.029,13.3041,4.60137,2470.67,2023-9-22T06:09:57Z
2023-09-22T04:10:37Z,42.805,6.029,13.3043,4.60132,2470.656,2023-9-22T06:13:00Z
2023-09-22T04:13:40Z,42.805,6.029,13.3036,4.60126,2470.707,2023-9-22T06:16:03Z
2023-09-22T04:16:44Z,42.805,6.029,13.3035,4.60133,2470.693,2023-9-22T06:19:06Z
2023-09-22T04:19:47Z,42.805,6.029,13.3041,4.60142,2470.684,2023-9-22T06:22:09Z
2023-09-22T04:22:50Z,42.805,6.029,13.3036,4.60112,2470.684,2023-9-22T06:25:12Z
2023-09-22T04:25:53Z,42.805,6.029,13.3036,4.60126,2470.684,2023-9-22T06:28:15Z
2023-09-22T04:28:56Z,42.805,6.029,13.3034,4.60134,2470.707,2023-9-22T06:31:18Z
2023-09-22T04:31:58Z,42.805,6.029,13.3034,4.60137,2470.693,2023-9-22T06:34:21Z
2023-09-22T04:35:01Z,42.805,6.029,13.3039,4.60144,2470.693,2023-9-22T06:37:24Z
2023-09-22T04:38:04Z,42.805,6.029,13.3039,4.60149,2470.67,2023-9-22T06:40:27Z
2023-09-22T04:41:07Z,42.805,6.029,13.3034,4.60130,2470.67,2023-9-22T06:43:30Z
2023-09-22T04:44:10Z,42.805,6.029,13.3051,4.60134,2470.67,2023-9-22T06:46:33Z
2023-09-22T04:47:14Z,42.805,6.029,13.3041,4.60133,2470.684,2023-9-22T06:49:36Z
2023-09-22T04:50:17Z,42.805,6.029,13.3041,4.60138,2470.693,2023-9-22T06:52:39Z
2023-09-22T04:53:20Z,42.805,6.029,13.3035,4.60132,2470.684,2023-9-22T06:55:42Z
2023-09-22T04:56:23Z,42.805,6.029,13.3036,4.60140,2470.693,2023-9-22T06:58:45Z
2023-09-22T04:59:26Z,42.805,6.029,13.3038,4.60140,2470.693,2023-9-22T07:01:48Z
2023-09-22T05:02:29Z,42.805,6.029,13.3049,4.60140,2470.67,2023-9-22T07:04:51Z
2023-09-22T05:05:32Z,42.805,6.029,13.3033,4.60119,2470.67,2023-9-22T07:07:55Z
2023-09-22T05:08:35Z,42.805,6.029,13.3039,4.60117,2470.646,2023-9-22T07:10:58Z
2023-09-22T05:11:38Z,42.805,6.029,13.3041,4.60132,2470.67,2023-9-22T07:14:01Z
2023-09-22T05:14:41Z,42.805,6.029,13.3036,4.60126,2470.646,2023-9-22T07:17:04Z
2023-09-22T05:17:44Z,42.805,6.029,13.3036,4.60132,2470.67,2023-9-22T07:20:07Z
2023-09-22T05:20:47Z,42.805,6.029,13.3034,4.60127,2470.67,2023-9-22T07:23:10Z
2023-09-22T05:23:50Z,42.805,6.029,13.3032,4.60112,2470.693,2023-9-22T07:26:13Z
2023-09-22T05:26:54Z,42.805,6.029,13.3036,4.60115,2470.67,2023-9-22T07:29:16Z
2023-09-22T05:29:57Z,42.805,6.029,13.3036,4.60122,2470.67,2023-9-22T07:32:19Z
2023-09-22T05:33:00Z,42.805,6.029,13.3034,4.60139,2470.67,2023-9-22T07:35:22Z
2023-09-22T05:36:03Z,42.805,6.029,13.3033,4.60106,2470.707,2023-9-22T07:38:25Z
2023-09-22T05:39:06Z,42.805,6.029,13.3032,4.60117,2470.693,2023-9-22T07:41:28Z
2023-09-22T05:42:09Z,42.805,6.029,13.3036,4.60121,2470.67,2023-9-22T07:44:32Z
2023-09-22T05:45:12Z,42.805,6.029,13.3033,4.60119,2470.67,2023-9-22T07:47:35Z
2023-09-22T05:48:15Z,42.805,6.029,13.3038,4.60117,2470.707,2023-9-22T07:50:38Z
2023-09-22T05:51:18Z,42.805,6.029,13.3039,4.60112,2470.693,2023-9-22T07:53:41Z
2023-09-22T05:54:21Z,42.805,6.029,13.3033,4.60115,2470.67,2023-9-22T07:56:44Z
2023-09-22T05:57:24Z,42.805,6.029,13.3035,4.60115,2470.707,2023-9-22T07:59:47Z
2023-09-22T06:00:28Z,42.805,6.029,13.3036,4.60112,2470.67,2023-9-22T08:02:50Z
2023-09-22T06:03:31Z,42.805,6.029,13.3034,4.60116,2470.693,2023-9-22T08:05:53Z
2023-09-22T06:06:34Z,42.805,6.029,13.3034,4.60128,2470.693,2023-9-22T08:08:56Z
2023-09-22T06:09:37Z,42.805,6.029,13.3040,4.60125,2470.661,2023-9-22T08:11:59Z
2023-09-22T06:12:40Z,42.805,6.029,13.3048,4.60148,2470.693,2023-9-22T08:15:02Z
2023-09-22T06:15:43Z,42.805,6.029,13.3042,4.60140,2470.693,2023-9-22T08:18:05Z
2023-09-22T06:18:46Z,42.805,6.029,13.3048,4.60138,2470.693,2023-9-22T08:21:09Z
2023-09-22T06:21:49Z,42.805,6.029,13.3039,4.60133,2470.707,2023-9-22T08:24:12Z
2023-09-22T06:24:52Z,42.805,6.029,13.3033,4.60117,2470.67,2023-9-22T08:27:15Z
2023-09-22T06:27:55Z,42.805,6.029,13.3036,4.60117,2470.693,2023-9-22T08:30:18Z
2023-09-22T06:30:57Z,42.805,6.029,13.3036,4.60137,2470.684,2023-9-22T08:33:19Z
2023-09-22T06:34:00Z,42.805,6.029,13.3040,4.60134,2470.684,2023-9-22T08:36:23Z
2023-09-22T06:37:03Z,42.805,6.029,13.3048,4.60122,2470.717,2023-9-22T08:39:26Z
2023-09-22T06:40:06Z,42.805,6.029,13.3034,4.60140,2470.67,2023-9-22T08:42:29Z
2023-09-22T06:43:09Z,42.805,6.029,13.3042,4.60125,2470.707,2023-9-22T08:45:32Z
2023-09-22T06:46:12Z,42.805,6.029,13.3046,4.60140,2470.707,2023-9-22T08:48:35Z
2023-09-22T06:49:15Z,42.805,6.029,13.3045,4.60135,2470.684,2023-9-22T08:51:38Z
2023-09-22T06:52:19Z,42.805,6.029,13.3039,4.60129,2470.693,2023-9-22T08:54:41Z
2023-09-22T06:55:22Z,42.805,6.029,13.3057,4.60147,2470.646,2023-9-22T08:57:44Z
2023-09-22T06:58:25Z,42.805,6.029,13.3041,4.60143,2470.67,2023-9-22T09:00:47Z
2023-09-22T07:01:28Z,42.805,6.029,13.3037,4.60161,2470.707,2023-9-22T09:03:50Z
2023-09-22T07:04:31Z,42.805,6.029,13.3041,4.60143,2470.707,2023-9-22T09:06:53Z
2023-09-22T07:07:34Z,42.805,6.029,13.3037,4.60130,2470.67,2023-9-22T09:09:57Z
2023-09-22T07:10:37Z,42.805,6.029,13.3035,4.60120,2470.693,2023-9-22T09:13:00Z
2023-09-22T07:13:40Z,42.805,6.029,13.3039,4.60141,2470.717,2023-9-22T09:16:03Z
2023-09-22T07:16:43Z,42.805,6.029,13.3034,4.60119,2470.717,2023-9-22T09:19:06Z
2023-09-22T07:19:46Z,42.805,6.029,13.3035,4.60149,2470.693,2023-9-22T09:22:09Z
2023-09-22T07:22:49Z,42.805,6.029,13.3034,4.60135,2470.684,2023-9-22T09:25:12Z
2023-09-22T07:25:52Z,42.805,6.029,13.3034,4.60150,2470.693,2023-9-22T09:28:15Z
2023-09-22T07:28:56Z,42.805,6.029,13.3032,4.60124,2470.707,2023-9-22T09:31:18Z
2023-09-22T07:31:59Z,42.805,6.029,13.3046,4.60160,2470.717,2023-9-22T09:34:21Z
2023-09-22T07:35:02Z,42.805,6.029,13.3058,4.60128,2470.693,2023-9-22T09:37:24Z
2023-09-22T07:38:05Z,42.805,6.029,13.3036,4.60125,2470.693,2023-9-22T09:40:27Z
2023-09-22T07:41:08Z,42.805,6.029,13.3040,4.60122,2470.67,2023-9-22T09:43:30Z
2023-09-22T07:44:11Z,42.805,6.029,13.3045,4.60134,2470.74,2023-9-22T09:46:33Z
2023-09-22T07:47:14Z,42.805,6.029,13.3036,4.60137,2470.693,2023-9-22T09:49:37Z
2023-09-22T07:50:17Z,42.805,6.029,13.3038,4.60155,2470.693,2023-9-22T09:52:40Z
2023-09-22T07:53:20Z,42.805,6.029,13.3034,4.60136,2470.693,2023-9-22T09:55:43Z
2023-09-22T07:56:23Z,42.805,6.029,13.3058,4.60147,2470.693,2023-9-22T09:58:46Z
2023-09-22T07:59:26Z,42.805,6.029,13.3051,4.60122,2470.754,2023-9-22T10:01:49Z
2023-09-22T08:02:29Z,42.805,6.029,13.3036,4.60144,2470.717,2023-9-22T10:04:52Z
2023-09-22T08:05:33Z,42.805,6.029,13.3043,4.60133,2470.717,2023-9-22T10:07:55Z
2023-09-22T08:08:36Z,42.805,6.029,13.3038,4.60135,2470.707,2023-9-22T10:10:58Z
2023-09-22T08:11:39Z,42.805,6.029,13.3050,4.60126,2470.74,2023-9-22T10:14:01Z
2023-09-22T08:14:42Z,42.805,6.029,13.3037,4.60119,2470.717,2023-9-22T10:17:04Z
2023-09-22T08:17:45Z,42.805,6.029,13.3041,4.60123,2470.717,2023-9-22T10:20:07Z
2023-09-22T08:20:48Z,42.805,6.029,13.3034,4.60122,2470.754,2023-9-22T10:23:11Z
2023-09-22T08:23:51Z,42.805,6.029,13.3031,4.60118,2470.754,2023-9-22T10:26:14Z
2023-09-22T08:26:54Z,42.805,6.029,13.3042,4.60152,2470.754,2023-9-22T10:29:17Z
2023-09-22T08:29:57Z,42.805,6.029,13.3037,4.60141,2470.717,2023-9-22T10:32:20Z
2023-09-22T08:33:00Z,42.805,6.029,13.3049,4.60129,2470.73,2023-9-22T10:35:23Z
2023-09-22T08:36:03Z,42.805,6.029,13.3054,4.60150,2470.74,2023-9-22T10:38:26Z
2023-09-22T08:39:06Z,42.805,6.029,13.3056,4.60141,2470.787,2023-9-22T10:41:29Z
2023-09-22T08:42:10Z,42.805,6.029,13.3056,4.60180,2470.763,2023-9-22T10:44:32Z
2023-09-22T08:45:13Z,42.805,6.029,13.3044,4.60151,2470.777,2023-9-22T10:47:35Z
2023-09-22T08:48:16Z,42.805,6.029,13.3046,4.60151,2470.777,2023-9-22T10:50:38Z
2023-09-22T08:51:19Z,42.805,6.029,13.3052,4.60147,2470.717,2023-9-22T10:53:41Z
2023-09-22T08:54:22Z,42.805,6.029,13.3060,4.60158,2470.754,2023-9-22T10:56:44Z
2023-09-22T08:57:25Z,42.805,6.029,13.3034,4.60135,2470.754,2023-9-22T10:59:48Z
2023-09-22T09:00:28Z,42.805,6.029,13.3041,4.60160,2470.763,2023-9-22T11:02:51Z
2023-09-22T09:03:31Z,42.805,6.029,13.3043,4.60139,2470.74,2023-9-22T11:05:54Z
2023-09-22T09:06:34Z,42.805,6.029,13.3036,4.60121,2470.75,2023-9-22T11:08:57Z
2023-09-22T09:09:37Z,42.805,6.029,13.3036,4.60129,2470.763,2023-9-22T11:12:00Z
2023-09-22T09:12:40Z,42.805,6.029,13.3039,4.60131,2470.717,2023-9-22T11:15:03Z
2023-09-22T09:15:44Z,42.805,6.029,13.3042,4.60137,2470.787,2023-9-22T11:18:06Z
2023-09-22T09:18:47Z,42.805,6.029,13.3043,4.60136,2470.763,2023-9-22T11:21:09Z
2023-09-22T09:21:50Z,42.805,6.029,13.3053,4.60137,2470.787,2023-9-22T11:24:12Z
2023-09-22T09:24:53Z,42.805,6.029,13.3052,4.60132,2470.787,2023-9-22T11:27:15Z
2023-09-22T09:27:56Z,42.805,6.029,13.3052,4.60165,2470.763,2023-9-22T11:30:18Z
2023-09-22T09:30:59Z,42.805,6.029,13.3038,4.60148,2470.8,2023-9-22T11:33:22Z
2023-09-22T09:34:02Z,42.805,6.029,13.3057,4.60144,2470.763,2023-9-22T11:36:25Z
2023-09-22T09:37:05Z,42.805,6.029,13.3043,4.60139,2470.787,2023-9-22T11:39:28Z
2023-09-22T09:40:08Z,42.805,6.029,13.3045,4.60147,2470.763,2023-9-22T11:42:31Z
2023-09-22T09:43:11Z,42.805,6.029,13.3043,4.60174,2470.763,2023-9-22T11:45:34Z
2023-09-22T09:46:14Z,42.805,6.029,13.3044,4.60165,2470.787,2023-9-22T11:48:37Z
2023-09-22T09:49:17Z,42.805,6.029,13.3042,4.60160,2470.763,2023-9-22T11:51:40Z
2023-09-22T09:52:21Z,42.805,6.029,13.3041,4.60155,2470.8,2023-9-22T11:54:43Z
2023-09-22T09:55:24Z,42.805,6.029,13.3063,4.60148,2470.824,2023-9-22T11:57:46Z
2023-09-22T09:58:27Z,42.805,6.029,13.3058,4.60131,2470.8,2023-9-22T12:00:49Z
2023-09-22T10:01:30Z,42.805,6.029,13.3051,4.60167,2470.787,2023-9-22T12:03:52Z
2023-09-22T10:04:33Z,42.805,6.029,13.3052,4.60149,2470.81,2023-9-22T12:06:56Z
2023-09-22T10:07:36Z,42.805,6.029,13.3052,4.60156,2470.81,2023-9-22T12:09:59Z
2023-09-22T10:10:39Z,42.805,6.029,13.3054,4.60168,2470.824,2023-9-22T12:13:02Z
2023-09-22T10:13:42Z,42.805,6.029,13.3045,4.60147,2470.81,2023-9-22T12:16:05Z
2023-09-22T10:16:45Z,42.805,6.029,13.3045,4.60158,2470.81,2023-9-22T12:19:08Z
2023-09-22T10:19:48Z,42.805,6.029,13.3054,4.60152,2470.787,2023-9-22T12:22:11Z
2023-09-22T10:22:51Z,42.805,6.029,13.3065,4.60144,2470.8,2023-9-22T12:25:14Z
2023-09-22T10:25:55Z,42.805,6.029,13.3036,4.60122,2470.787,2023-9-22T12:28:17Z
2023-09-22T10:28:58Z,42.805,6.029,13.3036,4.60131,2470.81,2023-9-22T12:31:20Z
2023-09-22T10:32:01Z,42.805,6.029,13.3039,4.60129,2470.824,2023-9-22T12:34:23Z
2023-09-22T10:35:04Z,42.805,6.029,13.3041,4.60131,2470.8,2023-9-22T12:37:26Z
2023-09-22T10:38:07Z,42.805,6.029,13.3043,4.60118,2470.787,2023-9-22T12:40:29Z
2023-09-22T10:41:10Z,42.805,6.029,13.3033,4.60129,2470.81,2023-9-22T12:43:33Z
2023-09-22T10:44:13Z,42.805,6.029,13.3035,4.60121,2470.773,2023-9-22T12:46:36Z
2023-09-22T10:47:16Z,42.805,6.029,13.3057,4.60161,2470.824,2023-9-22T12:49:39Z
2023-09-22T10:50:19Z,42.805,6.029,13.3044,4.60132,2470.787,2023-9-22T12:52:42Z
2023-09-22T10:53:22Z,42.805,6.029,13.3046,4.60150,2470.81,2023-9-22T12:55:45Z
2023-09-22T10:56:25Z,42.805,6.029,13.3049,4.60170,2470.824,2023-9-22T12:58:48Z
2023-09-22T10:59:29Z,42.805,6.029,13.3042,4.60164,2470.833,2023-9-22T13:01:51Z
2023-09-22T11:02:32Z,42.805,6.029,13.3065,4.60152,2470.763,2023-9-22T13:04:54Z
2023-09-22T11:05:35Z,42.805,6.029,13.3046,4.60166,2470.833,2023-9-22T13:07:57Z
2023-09-22T11:08:38Z,42.805,6.029,13.3039,4.60151,2470.81,2023-9-22T13:11:00Z
2023-09-22T11:11:41Z,42.805,6.029,13.3054,4.60135,2470.824,2023-9-22T13:14:03Z
2023-09-22T11:14:44Z,42.805,6.029,13.3035,4.60134,2470.81,2023-9-22T13:17:07Z
2023-09-22T11:17:47Z,42.805,6.029,13.3042,4.60152,2470.833,2023-9-22T13:20:10Z
2023-09-22T11:20:50Z,42.805,6.029,13.3043,4.60157,2470.787,2023-9-22T13:23:13Z
2023-09-22T11:23:53Z,42.805,6.029,13.3042,4.60129,2470.787,2023-9-22T13:26:16Z
2023-09-22T11:26:56Z,42.805,6.029,13.3047,4.60167,2470.81,2023-9-22T13:29:19Z
2023-09-22T11:29:59Z,42.805,6.029,13.3043,4.60156,2470.8,2023-9-22T13:32:22Z
2023-09-22T11:33:02Z,42.805,6.029,13.3050,4.60155,2470.8,2023-9-22T13:35:25Z
2023-09-22T11:36:06Z,42.805,6.029,13.3039,4.60168,2470.8,2023-9-22T13:38:28Z
2023-09-22T11:39:09Z,42.805,6.029,13.3041,4.60147,2470.81,2023-9-22T13:41:31Z
2023-09-22T11:42:12Z,42.805,6.029,13.3043,4.60152,2470.847,2023-9-22T13:44:34Z
2023-09-22T11:45:15Z,42.805,6.029,13.3032,4.60154,2470.833,2023-9-22T13:47:37Z
2023-09-22T11:48:18Z,42.805,6.029,13.3036,4.60118,2470.81,2023-9-22T13:50:40Z
2023-09-22T11:51:21Z,42.805,6.029,13.3040,4.60155,2470.81,2023-9-22T13:53:44Z
2023-09-22T11:54:24Z,42.805,6.029,13.3039,4.60135,2470.847,2023-9-22T13:56:47Z
2023-09-22T11:57:27Z,42.805,6.029,13.3034,4.60117,2470.81,2023-9-22T13:59:50Z
2023-09-22T12:00:30Z,42.805,6.029,13.3035,4.60116,2470.824,2023-9-22T14:02:53Z
2023-09-22T12:03:33Z,42.805,6.029,13.3035,4.60129,2470.763,2023-9-22T14:05:56Z
2023-09-22T12:06:36Z,42.805,6.029,13.3058,4.60137,2470.824,2023-9-22T14:08:59Z
2023-09-22T12:09:39Z,42.805,6.029,13.3051,4.60136,2470.824,2023-9-22T14:12:02Z
2023-09-22T12:12:43Z,42.805,6.029,13.3043,4.60135,2470.81,2023-9-22T14:15:05Z
2023-09-22T12:15:46Z,42.805,6.029,13.3039,4.60140,2470.81,2023-9-22T14:18:08Z
2023-09-22T12:18:49Z,42.805,6.029,13.3033,4.60123,2470.81,2023-9-22T14:21:11Z
2023-09-22T12:21:52Z,42.805,6.029,13.3043,4.60142,2470.824,2023-9-22T14:24:14Z
2023-09-22T12:24:55Z,42.805,6.029,13.3051,4.60136,2470.787,2023-9-22T14:27:18Z
2023-09-22T12:27:58Z,42.805,6.029,13.3046,4.60168,2470.824,2023-9-22T14:30:21Z
2023-09-22T12:30:59Z,42.805,6.029,13.3035,4.60150,2470.8,2023-9-22T14:33:22Z
2023-09-22T12:34:02Z,42.805,6.029,13.3040,4.60135,2470.787,2023-9-22T14:36:25Z
2023-09-22T12:37:05Z,42.805,6.029,13.3038,4.60131,2470.824,2023-9-22T14:39:28Z
2023-09-22T12:40:09Z,42.805,6.029,13.3041,4.60145,2470.871,2023-9-22T14:42:31Z
2023-09-22T12:43:12Z,42.805,6.029,13.3055,4.60160,2470.81,2023-9-22T14:45:34Z
2023-09-22T12:46:15Z,42.805,6.029,13.3051,4.60161,2470.81,2023-9-22T14:48:37Z
2023-09-22T12:49:18Z,42.805,6.029,13.3064,4.60180,2470.824,2023-9-22T14:51:40Z
2023-09-22T12:52:21Z,42.805,6.029,13.3048,4.60158,2470.787,2023-9-22T14:54:43Z
2023-09-22T12:55:24Z,42.805,6.029,13.3058,4.60153,2470.81,2023-9-22T14:57:47Z
2023-09-22T12:58:27Z,42.805,6.029,13.3046,4.60150,2470.81,2023-9-22T15:00:50Z
2023-09-22T13:01:30Z,42.805,6.029,13.3043,4.60141,2470.787,2023-9-22T15:03:53Z
2023-09-22T13:04:33Z,42.805,6.029,13.3049,4.60152,2470.81,2023-9-22T15:06:56Z
2023-09-22T13:07:36Z,42.805,6.029,13.3048,4.60160,2470.824,2023-9-22T15:09:59Z
2023-09-22T13:10:39Z,42.805,6.029,13.3046,4.60143,2470.833,2023-9-22T15:13:02Z
2023-09-22T13:13:43Z,42.805,6.029,13.3040,4.60134,2470.833,2023-9-22T15:16:05Z
2023-09-22T13:16:46Z,42.805,6.029,13.3038,4.60139,2470.8,2023-9-22T15:19:08Z
2023-09-22T13:19:49Z,42.805,6.029,13.3032,4.60125,2470.787,2023-9-22T15:22:11Z
2023-09-22T13:22:52Z,42.805,6.029,13.3036,4.60124,2470.787,2023-9-22T15:25:14Z
2023-09-22T13:25:55Z,42.805,6.029,13.3041,4.60142,2470.8,2023-9-22T15:28:17Z
2023-09-22T13:28:58Z,42.805,6.029,13.3037,4.60125,2470.81,2023-9-22T15:31:21Z
2023-09-22T13:32:01Z,42.805,6.029,13.3040,4.60176,2470.8,2023-9-22T15:34:24Z
2023-09-22T13:35:04Z,42.805,6.029,13.3034,4.60134,2470.787,2023-9-22T15:37:27Z
2023-09-22T13:38:07Z,42.805,6.029,13.3038,4.60156,2470.8,2023-9-22T15:40:30Z
2023-09-22T13:41:10Z,42.805,6.029,13.3039,4.60134,2470.787,2023-9-22T15:43:33Z
2023-09-22T13:44:13Z,42.805,6.029,13.3050,4.60158,2470.833,2023-9-22T15:46:36Z
2023-09-22T13:47:16Z,42.805,6.029,13.3050,4.60144,2470.787,2023-9-22T15:49:39Z
2023-09-22T13:50:20Z,42.805,6.029,13.3043,4.60167,2470.833,2023-9-22T15:52:42Z
2023-09-22T13:53:23Z,42.805,6.029,13.3061,4.60165,2470.824,2023-9-22T15:55:45Z
2023-09-22T13:56:26Z,42.805,6.029,13.3041,4.60135,2470.81,2023-9-22T15:58:48Z
2023-09-22T13:59:29Z,42.805,6.029,13.3043,4.60150,2470.8,2023-9-22T16:01:51Z
2023-09-22T14:02:32Z,42.805,6.029,13.3040,4.60130,2470.796,2023-9-22T16:04:55Z
2023-09-22T14:05:35Z,42.805,6.029,13.3040,4.60149,2470.833,2023-9-22T16:07:58Z
2023-09-22T14:08:38Z,42.805,6.029,13.3036,4.60152,2470.787,2023-9-22T16:11:01Z
2023-09-22T14:11:41Z,42.805,6.029,13.3044,4.60126,2470.847,2023-9-22T16:14:04Z
2023-09-22T14:14:44Z,42.805,6.029,13.3046,4.60152,2470.81,2023-9-22T16:17:07Z
2023-09-22T14:17:47Z,42.805,6.029,13.3034,4.60153,2470.8,2023-9-22T16:20:10Z
2023-09-22T14:20:50Z,42.805,6.029,13.3042,4.60143,2470.8,2023-9-22T16:23:13Z
2023-09-22T14:23:54Z,42.805,6.029,13.3039,4.60140,2470.8,2023-9-22T16:26:16Z
2023-09-22T14:26:57Z,42.805,6.029,13.3037,4.60141,2470.824,2023-9-22T16:29:19Z
2023-09-22T14:30:00Z,42.805,6.029,13.3042,4.60142,2470.8,2023-9-22T16:32:22Z
2023-09-22T14:33:03Z,42.805,6.029,13.3036,4.60140,2470.81,2023-9-22T16:35:25Z
2023-09-22T14:36:06Z,42.805,6.029,13.3036,4.60151,2470.8,2023-9-22T16:38:28Z
2023-09-22T14:39:09Z,42.805,6.029,13.3043,4.60153,2470.824,2023-9-22T16:41:32Z
2023-09-22T14:42:12Z,42.805,6.029,13.3038,4.60180,2470.81,2023-9-22T16:44:35Z
2023-09-22T14:45:15Z,42.805,6.029,13.3051,4.60163,2470.787,2023-9-22T16:47:38Z
2023-09-22T14:48:18Z,42.805,6.029,13.3040,4.60150,2470.81,2023-9-22T16:50:41Z
2023-09-22T14:51:21Z,42.805,6.029,13.3041,4.60144,2470.777,2023-9-22T16:53:44Z
2023-09-22T14:54:24Z,42.805,6.029,13.3039,4.60146,2470.763,2023-9-22T16:56:47Z
2023-09-22T14:57:28Z,42.805,6.029,13.3033,4.60159,2470.763,2023-9-22T16:59:50Z
2023-09-22T15:00:31Z,42.805,6.029,13.3041,4.60139,2470.787,2023-9-22T17:02:53Z
2023-09-22T15:03:34Z,42.805,6.029,13.3043,4.60150,2470.777,2023-9-22T17:05:56Z
2023-09-22T15:06:37Z,42.805,6.029,13.3060,4.60160,2470.81,2023-9-22T17:08:59Z
2023-09-22T15:09:40Z,42.805,6.029,13.3054,4.60147,2470.787,2023-9-22T17:12:02Z
2023-09-22T15:12:43Z,42.805,6.029,13.3045,4.60144,2470.81,2023-9-22T17:15:06Z